www.pogodaiklimat.ru

Погода и климат >> Архив погоды >> Китай >> Ejin Qi


ПОГОДА в Ejin Qi

  • Прогноз погоды в Ejin Qi
  • Монитор погоды в Ejin Qi
  • Климат города

АРХИВ ПОГОДЫ в Ejin Qi

Время (UTC), дата Ветер
(напр.,м/с)
 
Видим.   Явления Облачность Т
(С)
Тd
(С)
f
(%)
Тe
(С)
Тes
(С)
Комфортность P
(гПа)
Po
(гПа)
Тmin
(С)
Tmax
(С)
R
(мм)
R24
(мм)
S
(см)
21 12.08 В 2 30 км ?/? +20.2 +5.1 37 +21 +21 комфорт 1002.5 867.9
00 13.08 В 3 30 км ясно +21.9 +7.0 38 +23 +24 комфорт 1004.2 902.7
03 13.08 В 3 30 км ясно +30.4 +5.6 21 +29 +39 жарко 1003.7 1004.0
06 13.08 В 2 30 км 1/1
[]
+34.3 +2.0 13 +31 +46 жарко 1002.1 1036.2 +19.4
09 13.08 СВ 3 30 км 9/9
[]
+35.4 +1.7 12 +32 +33 жарко 1001.4 1001.0
12 13.08 В 2 12 км 9/9 1500 м
[]
+32.4 +4.2 17 +30 +30 жарко 1001.6 900.6
15 13.08 В 2 30 км ?/? +28.7 +2.1 18 +27 +27 жарко 1001.7 867.1
18 13.08 В 2 30 км ?/? +24.9 +2.4 23 +24 +24 комфорт 1001.1 900.9 +35.8
21 13.08 С 2 17 км ?/? +21.6 +5.9 36 +22 +22 комфорт 1001.8 1002.0
00 14.08 В 2 25 км 9/9
[]
+23.1 +6.4 34 +24 +24 комфорт 1003.1 902.1
03 14.08 В 3 30 км 9/9 1500 м
[]
+30.4 +4.9 20 +29 +30 жарко 1003.1 868.3
06 14.08 С 3 30 км 9/9 1500 м
[]
+33.9 +3.7 15 +31 +33 жарко 1001.3 901.0 +20.0
09 14.08 В 5 22 км 3/3
[]
+36.0 +0.9 11 +32 +35 жарко 999.9 1000.0
12 14.08 В 3 30 км ясно +32.3 +1.4 14 +29 +29 жарко 1000.7 899.9
15 14.08 В 2 30 км ?/? +27.7 +2.7 20 +26 +26 жарко 1001.5 867.0
18 14.08 В 2 30 км н/о +24.2 +3.5 26 +24 +24 комфорт 1001.6 901.2 +36.2
21 14.08 В 2 30 км ?/? +23.7 +4.6 29 +23 +23 комфорт 1001.9 1002.0
00 15.08 В 2 30 км 1/1
[]
+22.9 +6.6 35 +24 +25 комфорт 1003.4 902.3
03 15.08 ЮВ 3 28 км 1/1
[]
+32.1 +2.2 15 +29 +39 жарко 1002.7 868.1
06 15.08 В 4 30 км 5/5
[]
+36.9 +1.6 11 +33 +39 жарко 999.8 900.0 +21.2
09 15.08 В 5 23 км 9/9
[]
+37.2 +0.5 10 +34 +34 очень
жарко
997.7 998.0
12 15.08 В 2 22 км 9/9
[]
+33.2 +2.1 14 +30 +30 жарко 998.3 897.9
15 15.08 В 3 30 км ?/? +30.6 +3.6 18 +28 +28 жарко 998.6 865.2
18 15.08 В 5 13 км ?/? +30.2 +3.3 18 +28 +28 жарко 997.7 899.0 +37.7
21 15.08 В 5 7000 м мгла ?/? +27.6 +5.2 24 +27 +27 жарко 997.8 998.0
00 16.08 В 4 10 км 9/9 1500 м
[]
+26.4 +7.0 29 +26 +26 жарко 1000.3 900.2
03 16.08 В 1 19 км 9/9 1500 м
[]
+27.3 +8.2 30 +27 +29 жарко 1001.8 867.2
06 16.08 СВ 6 30 км 8/8 1500 м
[]
+32.1 +8.4 23 +31 +32 жарко 999.0 899.5 +26.2
09 16.08 В 5 30 км 9/9 1500 м
[]
+33.5 +6.7 19 +32 +32 жарко 997.3 997.0
12 16.08 В 3 29 км 9/9 1500 м
[]
+32.2 +4.9 18 +30 +30 жарко 997.8 897.8
15 16.08 В 5 22 км ?/? +28.9 +8.6 28 +28 +28 жарко 999.7 865.2
18 16.08 В 3 30 км ?/? +26.3 +7.8 31 +26 +26 жарко 999.6 899.4 +34.1
21 16.08 В 4 30 км ?/? +24.8 +10.3 40 +26 +26 жарко 1000.3 1000.0
00 17.08 В 2 30 км 9/9 1500 м
[]
+23.8 +10.8 44 +25 +25 комфорт 1001.8 901.0
03 17.08 В 4 9000 м 9/9 1500 м
[]
+27.7 +10.4 34 +28 +29 жарко 1002.0 867.4
06 17.08 ЮВ 2 29 км 9/9 2000 м
[]
+31.6 +8.0 23 +30 +32 жарко 1000.3 900.0 +23.7
09 17.08 СВ 1 26 км 9/9
[]
+33.4 +8.8 22 +32 +33 жарко 998.5 999.0
12 17.08 В 1 19 км 4/4 1500 м
[]
+31.8 +11.1 28 +32 +32 жарко 998.7 1032.8
15 17.08 В 2 30 км ?/? +27.6 +10.3 34 +28 +28 жарко 1000.1 1000.0
18 17.08 В 3 30 км ?/? +25.2 +9.1 36 +26 +26 жарко 1000.2 899.7 +33.7
21 17.08 В 3 30 км ?/? +24.3 +9.9 40 +25 +25 комфорт 1000.0 1000.0
00 18.08 В 3 12 км 3/3
[]
+25.1 +9.8 38 +26 +27 жарко 1001.1 900.5
03 18.08 В 5 18 км 3/3
[]
+31.3 +7.7 23 +30 +35 жарко 1000.9 866.6
06 18.08 В 5 25 км 3/3
[]
+35.7 +6.9 17 +33 +39 жарко 998.5 898.8 +23.4
09 18.08 В 3 23 км 9/9 1500 м
[]
+36.5 +5.7 15 +34 +34 очень
жарко
997.1 997.0
12 18.08 В 1 13 км 9/9 1500 м
[]
+33.5 +8.9 22 +32 +32 жарко 997.4 897.5
15 18.08 СЗ 4 30 км ?/? +26.0 +12.8 44 +28 +28 жарко 1000.2 865.5
18 18.08 СЗ 5 27 км ?/? +22.3 +13.6 58 +25 +25 комфорт 1000.7 900.3 +37.0
21 18.08 З 8 30 км ?/? +20.7 +13.4 63 +23 +23 комфорт 1001.4 1001.0
00 19.08 СЗ 4 30 км 9/9 1500 м
[]
+19.5 +13.2 67 +21 +21 комфорт 1004.0 902.5
03 19.08 З 5 30 км 9/9 1500 м
[]
+21.5 +11.8 54 +24 +24 комфорт 1006.6 870.0
06 19.08 З 5 30 км 9/9 1500 м
[]
+24.2 +10.1 41 +25 +26 комфорт 1006.9 904.1 +19.5
09 19.08 З 4 30 км 9/9 1500 м
[]
+28.7 +6.7 25 +28 +28 жарко 1004.8 1005.0
12 19.08 З 4 30 км 9/9 1500 м
[]
+28.2 +3.1 20 +26 +26 жарко 1005.5 903.0
15 19.08 З 2 30 км ?/? +23.8 +3.7 27 +23 +23 комфорт 1007.8 1008.0

 

Местоположение метеостанции Ejin Qi (Китай): широта 41.95 долгота 101.06 высота над уровнем моря 941 м.

В архиве по умолчанию представлена погода в Ejin Qi за последнюю неделю. Архивные данные за месяц целиком и за предыдущие месяцы, начиная с января 2011 года, Вы можете получить, выбрав интересующий диапазон дат из раскрывающегося списка и нажав кнопку "Ввод!".

Внимание! Время в таблицах - всемирное. Для получения местного времени необходимо прибавить поправку, которая в Ejin Qi равна 8 ч.

Смотрите также архив погоды в соседних городах и на ближайших метеорологических станциях:

Погода в Guai Zi Hu (Китай) (126 км)
Погода в Shine Usa (Монголия) (127 км)
Погода в Bogd (Монголия) (313 км)
Погода в Bayan Mod (Китай) (317 км)
Погода в Jiuquan (Китай) (325 км)
Погода в Dalanzadgad (Монголия) (328 км)
Погода в Mazong Shan (Китай) (334 км)
Погода в Zhangye (Китай) (340 км)
Погода в Amarbuyantayn (Монголия) (353 км)
Погода в Yumen Zhen (Китай) (386 км)

Пояснения к столбцам:

Ветер - указаны скорость ветра в м/с - средняя за 10 мин, порывы в срок и между сроками (в фигурных скобках) и направление, откуда дует ветер: С - северный, СВ - северо-восточный, В - восточный, ЮВ - юго-восточный, Ю - южный, ЮЗ - юго-западный, З - западный, СЗ - северо-западный.
Видимость - горизонтальная дальность видимости в метрах или километрах. При видимости от 1 до 10 км при отсутствии осадков обычно наблюдается дымка, при ухудшении видимости до 1 км и менее - туман. В сухую погоду видимость может ухудшаться дымом, пылью или мглою.
Явления - указаны атмосферные явления, наблюдавшиеся в срок или в последний час перед сроком; фигурными скобками обозначены явления, наблюдавшиеся между сроками (за 1-3 часа до срока); квадратными скобками обозначены град или гололедные отложения с указанием их диаметра в мм.
Облачность - указаны через наклонную черту общая и нижняя облачность в баллах и высота нижней границы облаков в метрах; квадратными скобками обозначены формы облаков: Ci - перистые, Cs - перисто-слоистые, Cc - перисто-кучевые, Ac - высококучевые, As - высокослоистые, Sc - слоисто-кучевые, Ns - слоисто-дождевые, Cu - кучевые, Cb - кучево-дождевые. Подробнее классификацию облаков см. в Атласе облаков (PDF).
T - Температура воздуха - температура, измеренная на высоте 2 м над землей.
Td - Температура точки росы - температура, при понижении до которой содержащийся в воздухе водяной пар достигнет насыщения.
f - Относительная влажность воздуха - влажноcть воздуха, измеренная на высоте 2 м над землей.
Te - Эффективная температура - температура, которую ощущает одетый по сезону человек в тени. Характеристика душности погоды. При расчете учитывается влияние влажности воздуха и скорости ветра на теплоощущения человека.
Tes - Эффективная температура на солнце - температура, которую ощущает человек, с поправкой на солнечный нагрев. Характеристика знойности погоды. Зависит от высоты солнца над горизонтом, облачности и скорости ветра. Ночью, в пасмурную погоду, а также при ветре 12 м/с и более поправка равна нулю.
P - Атмосферное давление - приведенное к уровню моря атмосферное давление.
Po - Атмосферное давление - измеренное на уровне метеостанции атмосферное давление.
Tmin - Минимальная температура - минимум температуры воздуха на высоте 2 м над землей.
Tmax - Максимальная температура - максимум температуры воздуха на высоте 2 м над землей.
R - Количество осадков - Количество выпавших осадков за период времени, мм. При наведении курсора мыши на число - период времени, за который выпало указанное количество осадков.
R24 - Количество осадков - Количество выпавших осадков за 24 часа, мм.
S - Снежный покров - Высота снежного покрова, см. При наведении курсора мыши на число - состояние снежного покрова и степень покрытия местности в баллах.